STARLINK-1464, 45751

Orbit data source: Space-Track

STARLINK-1464, 45751 is a payload satellite owned by SpaceX/Seattle (US) in LEO that was launched on Sat, 13 Jun 2020 UTC via an FALCON 9 launch vehicle from the Air Force Eastern Test Range (AFETR). Payload-class satellites include a variety of spacecraft equipped with specific instruments for various scientific and technological missions. These include communications satellites like Starlink; space stations such as the ISS; scientific satellites like the Hubble; Earth observation satellites from companies like Planet Labs, Umbra, and HawkEye 360; GPS; miniature CubeSats for education and research; and military/defense satellites.

Loading next visibility...
Identifier
45751, 2020-038X
Orbit
LEO
Country
Flag of USUS
Related business
Manufacturer
SpaceX/Seattle
Mission
Partially operational Commercial Communications
Bus & Motor
STARLINK, Unknown motor
Mass
260 kg wet, ~248 kg dry
Launch date (UTC)
2020-06-13 (6 years ago)
Launch vehicle
FALCON 9
Launch site
Air Force Eastern Test Range (AFETR)
Object type
Payload
Rocket body
Debris
Shape & HBR
Box + 1 Pan, 10.1 m
Radar Cross Section
13.562 m², Large (>1 m²)

Expand to show TLE details & history
Last TLE update: 12 hours ago

TLE from 12 hours ago
0 STARLINK-1464
1 45751U 20038X   26123.72862323  .00086889  00000-0  14638-2 0  9995
2 45751  53.0479 301.5867 0000890 183.0658 177.0345 15.50981092325175
Epoch: 2026-05-03T17:29Z
TLE epoch observation values (Epoch: 2026-05-03T17:29:13.047Z)
Latitude
-0°
Longitude
177.65433°
Altitude
415.36 km
Speed
7.663 km/s
True Right ascension
20h 06m 20s
True Declination
0° 00' 00"
Sunlit
Object was in daylight at epoch
Visualization orbit readout
Latitude
Unknown
Longitude
Unknown
Altitude
Unknown
Speed
Unknown
Apparent Right ascension
Unknown
Apparent Declination
Unknown
Sunlit
N/A
Visualization observer readout
Local Sidereal Time
13:20:19
Azimuth
Unknown
Elevation
Unknown
Doppler factor
Unknown
Orbital elements
Apogee altitude
414.742 km
Perigee altitude
413.533 km
Semi-major axis
6,792.274 km
Eccentricity
0.00009
Inclination
53.0479°
RAAN
301.5867°
Arg. of periapsis
183.0658°
True anomaly
177.03503°
Mean anomaly
177.0345°
Eccentric anomaly
177.03476°
Mean motion
3.87722 °/min
Orbital period
92.85 mins
BSTAR
0.0014638
Loading maneuver chart data...
Computing Atmospheric mass density...
Loading historical data...
Loading historical data...
Loading historical data...
Loading historical data...
Loading historical data...
Loading historical data...
Loading historical data...

Documentation

Showing up to 5 results
|